Torna al catalogo

CZ-6A DEB

AttivoSSO
NORAD 54552·DEBRIS·🇨🇳 China

Lanciato Nov 11, 2022 da Taiyuan Satellite Launch Center

Loading…

Prossimi Passaggi (prossime 24 ore)

TLE

AggiornatoSource: Space-Track

Epoca: Sep 13, 2026, 22:19 UTC

1 54552U 22151LC  26256.93024292  .00000036  00000-0  43404-4 0  9992
2 54552  98.8425 261.9002 0034868  73.9794 286.5213 14.11826180197520

Traccia CZ-6A DEB in tempo reale con AllMySat

Download on the App Store